VK3CE Weather Reports


Display with metric or nautical units.
time (UTC)temp
F
wind
direction
speed
MPH
gust
MPH
rain 1hr
in
rain 24hr
in
rain mn
in
humidity
%
barometer
mb
20220929040205 66 90 3.0 10.0 0.00 0.00 0.00 47 1020.3
20220929035705 66 90 5.0 10.0 0.00 0.00 0.00 47 1020.4
20220929034205 66 135 4.0 10.0 0.00 0.00 0.00 46 1020.4
20220929033704 66 45 3.0 10.0 0.00 0.00 0.00 46 1020.4
20220929033205 66 68 3.0 12.0 0.00 0.00 0.00 46 1020.5
20220929032705 66 45 3.0 12.0 0.00 0.00 0.00 46 1020.4
20220929031705 67 90 6.0 11.0 0.00 0.00 0.00 45 1020.5
20220929031208 68 113 4.0 8.0 0.00 0.00 0.00 47 1020.3
20220929030705 67 135 2.0 10.0 0.00 0.00 0.00 46 1020.3
20220929025704 67 68 6.0 10.0 0.00 0.00 0.00 46 1020.6
20220929024704 67 113 3.0 10.0 0.00 0.00 0.00 47 1020.5
20220929023205 67 45 4.0 10.0 0.00 0.00 0.00 46 1020.5
20220929022704 67 68 4.0 10.0 0.00 0.00 0.00 47 1020.6
20220929022205 67 158 4.0 10.0 0.00 0.00 0.00 47 1020.6
20220929021205 68 113 2.0 10.0 0.00 0.00 0.00 47 1020.7
20220929020705 69 135 2.0 10.0 0.00 0.00 0.00 48 1020.6
20220929020205 68 113 3.0 10.0 0.00 0.00 0.00 48 1020.7
20220929015204 68 68 4.0 9.0 0.00 0.00 0.00 49 1020.8
20220929014205 68 68 2.0 8.0 0.00 0.00 0.00 49 1020.8
20220929013204 67 45 3.0 11.0 0.00 0.00 0.00 49 1020.8
20220929012705 67 135 6.0 9.0 0.00 0.00 0.00 48 1021.0
20220929012205 67 90 6.0 10.0 0.00 0.00 0.00 48 1020.8
20220929011205 67 135 3.0 8.0 0.00 0.00 0.00 50 1020.8
20220929010204 66 90 3.0 11.0 0.00 0.00 0.00 51 1021.1
20220929005705 66 158 3.0 11.0 0.00 0.00 0.00 51 1021.2
20220929005205 66 68 5.0 11.0 0.00 0.00 0.00 51 1021.1
20220929004204 65 135 4.0 12.0 0.00 0.00 0.00 50 1021.2
20220929003705 66 90 7.0 11.0 0.00 0.00 0.00 51 1021.3
20220929003204 66 90 4.0 11.0 0.00 0.00 0.00 53 1021.3
20220929002705 66 68 2.0 7.0 0.00 0.00 0.00 54 1021.4
20220929002205 65 45 1.0 7.0 0.00 0.00 0.00 53 1021.1
20220929001707 65 113 4.0 10.0 0.00 0.00 0.00 54 1021.3
20220929001204 65 113 3.0 10.0 0.00 0.00 0.00 54 1021.4
20220929000205 64 113 3.0 7.0 0.00 0.00 0.00 55 1021.5
20220928235704 64 68 3.0 7.0 0.00 0.00 0.00 55 1021.5
20220928235205 64 135 3.0 8.0 0.00 0.00 0.00 56 1021.3
20220928234204 62 113 2.0 12.0 0.00 0.00 0.00 56 1021.5
20220928233705 62 68 4.0 12.0 0.00 0.00 0.00 56 1021.5
20220928233205 62 90 5.0 10.0 0.00 0.00 0.00 55 1021.5
20220928232204 61 68 4.0 9.0 0.00 0.00 0.00 56 1021.5
20220928231705 61 90 5.0 10.0 0.00 0.00 0.00 56 1021.7
20220928230704 60 68 4.0 12.0 0.00 0.00 0.00 57 1021.6
20220928230205 60 90 4.0 12.0 0.00 0.00 0.00 58 1021.5
20220928225705 60 113 4.0 11.0 0.00 0.00 0.00 60 1021.8
20220928225204 60 90 5.0 11.0 0.00 0.00 0.00 61 1021.6
20220928224705 60 158 5.0 10.0 0.00 0.00 0.00 62 1021.6
20220928224208 60 90 3.0 8.0 0.00 0.00 0.00 62 1021.6
20220928223705 59 90 2.0 11.0 0.00 0.00 0.00 62 1021.6
20220928223205 59 90 4.0 11.0 0.00 0.00 0.00 62 1021.6
20220928222705 59 68 3.0 11.0 0.00 0.00 0.00 63 1021.6
20220928222204 58 90 3.0 8.0 0.00 0.00 0.00 63 1021.7
20220928221205 57 113 5.0 8.0 0.00 0.00 0.00 63 1021.5
20220928220205 58 68 2.0 8.0 0.00 0.00 0.00 64 1021.6
20220928215705 58 135 3.0 7.0 0.00 0.00 0.00 64 1021.7
20220928215205 58 23 2.0 7.0 0.00 0.00 0.00 64 1021.6
20220928214704 58 90 1.0 7.0 0.00 0.00 0.00 65 1021.6
20220928214205 58 113 0.0 0.0 0.00 0.00 0.00 65 1021.6
20220928213705 58 113 0.0 6.0 0.00 0.00 0.00 65 1021.4
20220928213204 58 90 0.0 6.0 0.00 0.00 0.00 64 1021.5
20220928212705 58 90 2.0 6.0 0.00 0.00 0.00 64 1021.5
20220928211705 58 135 0.0 3.0 0.00 0.00 0.00 64 1021.5
20220928211205 58 90 0.0 4.0 0.00 0.00 0.00 64 1021.5
20220928210705 58 90 0.0 7.0 0.00 0.00 0.00 63 1021.4
20220928210205 58 90 0.0 7.0 0.00 0.00 0.00 63 1021.4
20220928205704 58 90 1.0 7.0 0.00 0.00 0.00 63 1021.3
20220928205205 56 113 1.0 5.0 0.00 0.00 0.00 62 1021.4
20220928204704 53 90 0.0 5.0 0.00 0.00 0.00 61 1021.3
20220928204204 49 68 1.0 5.0 0.00 0.00 0.00 61 1021.2
20220928203705 48 203 0.0 6.0 0.00 0.00 0.00 61 1021.2
20220928203204 48 90 1.0 6.0 0.00 0.00 0.00 61 1021.1
20220928202705 48 90 1.0 7.0 0.00 0.00 0.00 61 1021.1
20220928202204 48 68 0.0 9.0 0.00 0.00 0.00 61 1020.9
20220928201705 48 90 1.0 9.0 0.00 0.00 0.00 61 1020.9
20220928201204 48 90 1.0 8.0 0.00 0.00 0.00 61 1020.8
20220928200705 48 90 1.0 8.0 0.00 0.00 0.00 61 1020.7
20220928195705 48 135 2.0 8.0 0.00 0.00 0.00 61 1020.7
20220928192204 48 113 2.0 8.0 0.00 0.00 0.00 61 1020.2
20220928191204 48 113 2.0 8.0 0.00 0.00 0.00 61 1020.0
20220928190705 48 113 1.0 8.0 0.00 0.00 0.00 61 1020.0
20220928185705 48 90 1.0 10.0 0.00 0.00 0.00 61 1019.9
20220928184704 48 113 0.0 7.0 0.00 0.00 0.00 61 1020.2
20220928184205 48 113 1.0 7.0 0.00 0.00 0.00 61 1020.0
20220928182704 48 90 1.0 6.0 0.00 0.00 0.00 60 1019.9
20220928182205 48 45 0.0 0.0 0.00 0.00 0.00 60 1019.8
20220928181704 48 90 0.0 4.0 0.00 0.00 0.00 60 1019.7
20220928174705 48 113 0.0 6.0 0.00 0.00 0.00 60 1019.7
20220928173705 48 90 1.0 6.0 0.00 0.00 0.00 60 1019.7
20220928173205 48 113 1.0 4.0 0.00 0.00 0.00 60 1019.8
20220928170704 49 68 1.0 10.0 0.00 0.00 0.00 59 1019.6
20220928170205 49 90 1.0 10.0 0.00 0.00 0.00 59 1019.5
20220928165705 49 90 1.0 6.0 0.00 0.00 0.00 59 1019.6
20220928165204 49 135 0.0 5.0 0.00 0.00 0.00 59 1019.6
20220928164705 49 113 1.0 4.0 0.00 0.00 0.00 59 1019.5
20220928164205 49 90 0.0 4.0 0.00 0.00 0.00 59 1019.5
20220928163704 49 113 0.0 4.0 0.00 0.00 0.00 60 1019.4
20220928162705 49 113 0.0 3.0 0.00 0.00 0.00 59 1019.2
20220928162205 49 68 0.0 3.0 0.00 0.00 0.00 59 1019.4
20220928161705 49 135 0.0 0.0 0.00 0.00 0.00 59 1019.3
20220928161205 49 113 0.0 4.0 0.00 0.00 0.00 59 1019.2
20220928160705 49 68 0.0 4.0 0.00 0.00 0.00 59 1019.4
20220928160205 49 113 0.0 6.0 0.00 0.00 0.00 59 1019.4
20220928155705 49 113 0.0 6.0 0.00 0.00 0.00 59 1019.2
20220928155205 49 45 0.0 3.0 0.00 0.00 0.00 59 1019.2
20220928153705 48 113 0.0 0.0 0.00 0.02 0.00 59 1019.1
20220928153204 49 113 0.0 0.0 0.00 0.02 0.00 59 1019.1
20220928151704 49 113 0.0 0.0 0.00 0.02 0.00 59 1019.2
20220928151205 49 203 0.0 0.0 0.00 0.02 0.00 59 1019.3
20220928150705 49 90 0.0 0.0 0.00 0.02 0.00 58 1019.2
20220928150205 49 135 0.0 0.0 0.00 0.02 0.00 58 1019.1
20220928145706 49 90 0.0 0.0 0.00 0.02 0.00 58 1019.1
20220928145204 49 90 0.0 0.0 0.00 0.02 0.00 58 1019.2
20220928143205 50 23 0.0 0.0 0.00 0.02 0.00 58 1018.9
20220928141705 50 90 1.0 5.0 0.00 0.02 0.00 58 1019.0
20220928141205 50 90 0.0 5.0 0.00 0.02 0.00 58 1019.0
20220928140705 50 90 0.0 0.0 0.00 0.02 0.00 58 1019.2
20220928140205 51 180 0.0 0.0 0.00 0.02 0.02 58 1019.1
20220928135704 51 113 0.0 3.0 0.00 0.02 0.02 58 1019.1
20220928135204 51 135 0.0 3.0 0.00 0.02 0.02 58 1018.9
20220928133708 51 113 0.0 10.0 0.00 0.02 0.02 58 1019.0
20220928133204 52 68 0.0 10.0 0.00 0.02 0.02 58 1019.0
20220928132704 52 113 0.0 10.0 0.00 0.02 0.02 58 1019.0
20220928132205 52 135 1.0 0.0 0.00 0.02 0.02 58 1019.0
20220928130705 52 113 0.0 0.0 0.00 0.02 0.02 58 1019.0
20220928125705 52 90 0.0 4.0 0.00 0.04 0.02 58 1019.2
20220928125205 52 68 0.0 4.0 0.00 0.04 0.02 58 1019.1
20220928124705 52 90 1.0 4.0 0.00 0.04 0.02 57 1019.0
20220928124209 52 68 0.0 4.0 0.00 0.06 0.02 57 1019.1
20220928123705 52 113 0.0 4.0 0.00 0.06 0.02 57 1019.1
20220928123205 52 45 0.0 3.0 0.00 0.06 0.02 57 1019.0
20220928121205 52 315 0.0 6.0 0.00 0.08 0.02 57 1018.9
20220928120705 52 315 0.0 7.0 0.00 0.08 0.02 57 1019.1
20220928120205 52 90 1.0 7.0 0.00 0.10 0.02 57 1019.0
20220928115705 52 23 0.0 7.0 0.00 0.10 0.02 57 1018.9
20220928114705 53 113 1.0 8.0 0.00 0.12 0.02 57 1018.8
20220928114205 53 90 1.0 9.0 0.00 0.12 0.02 57 1018.8
20220928111205 53 68 3.0 11.0 0.00 0.22 0.02 56 1018.8
20220928110705 53 113 2.0 11.0 0.00 0.24 0.02 56 1018.7
20220928110205 53 90 1.0 9.0 0.00 0.24 0.02 56 1018.7
20220928105205 54 113 1.0 8.0 0.00 0.24 0.02 56 1018.7
20220928104204 54 90 1.0 7.0 0.00 0.26 0.02 56 1018.5
20220928103205 54 113 0.0 7.0 0.00 0.30 0.02 55 1018.5
20220928102704 54 113 1.0 3.0 0.00 0.35 0.02 55 1018.4
20220928101704 55 68 0.0 6.0 0.00 0.47 0.02 55 1018.3
20220928101204 55 113 1.0 6.0 0.00 0.53 0.02 55 1018.5
20220928100704 55 113 1.0 0.0 0.00 0.57 0.02 55 1018.4
20220928100205 55 113 0.0 3.0 0.00 0.59 0.02 55 1018.3
20220928095704 55 90 0.0 3.0 0.00 0.61 0.02 55 1018.4
20220928095204 56 68 0.0 5.0 0.00 0.63 0.02 55 1018.3
20220928094205 56 45 0.0 5.0 0.00 0.67 0.02 55 1018.1
20220928093204 56 113 1.0 5.0 0.00 0.71 0.02 55 1018.0
20220928092705 56 45 0.0 5.0 0.00 0.73 0.02 55 1017.7
20220928092204 56 135 1.0 0.0 0.00 0.80 0.02 55 1017.7
20220928091705 57 113 0.0 0.0 0.00 0.81 0.02 55 1017.4
20220928091205 56 90 0.0 6.0 0.00 0.83 0.02 55 1017.4
20220928090704 56 68 0.0 6.0 0.00 0.87 0.02 55 1017.5
20220928084205 57 135 0.0 6.0 0.00 0.98 0.02 53 1017.1
20220928083704 57 113 1.0 5.0 0.00 1.04 0.02 53 1017.0
20220928082705 57 135 0.0 9.0 0.00 1.16 0.02 52 1016.8
20220928082205 57 135 1.0 9.0 0.00 1.24 0.02 52 1017.0
20220928081204 58 113 1.0 4.0 0.00 1.30 0.02 51 1016.8
20220928075705 58 135 1.0 6.0 0.00 1.34 0.02 50 1016.6
20220928075205 58 113 1.0 6.0 0.00 1.37 0.02 50 1016.5
20220928074705 59 113 1.0 8.0 0.00 1.37 0.02 50 1016.4
20220928073705 59 113 2.0 8.0 0.00 1.39 0.02 49 1016.2
20220928073205 59 113 2.0 8.0 0.00 1.39 0.02 49 1016.2
20220928072704 60 45 1.0 14.0 0.00 1.39 0.02 49 1016.1
20220928072205 60 68 1.0 14.0 0.00 1.39 0.02 49 1016.1
20220928071704 60 113 2.0 14.0 0.00 1.39 0.02 48 1016.1
20220928071205 60 90 2.0 12.0 0.00 1.39 0.02 49 1016.1
20220928065205 62 68 3.0 12.0 0.00 1.41 0.02 49 1015.8
20220928064704 62 135 1.0 7.0 0.00 1.41 0.02 49 1015.8
20220928062205 64 113 2.0 13.0 0.00 1.41 0.02 49 1015.3
20220928061705 63 135 1.0 12.0 0.00 1.41 0.02 49 1015.3
20220928061205 63 90 1.0 12.0 0.00 1.43 0.02 49 1015.1
20220928060704 63 113 3.0 11.0 0.00 1.43 0.02 48 1015.1
20220928055705 63 113 2.0 13.0 0.00 1.43 0.02 49 1015.1
20220928055205 64 113 4.0 13.0 0.00 1.43 0.02 49 1015.0
20220928054705 64 90 3.0 13.0 0.00 1.43 0.02 49 1014.9
20220928054205 64 90 4.0 12.0 0.00 1.43 0.02 50 1014.8
20220928053705 64 113 2.0 10.0 0.00 1.43 0.02 50 1014.8
20220928053205 64 68 1.0 6.0 0.00 1.43 0.02 50 1014.8
20220928052205 64 90 1.0 17.0 0.00 1.44 0.02 50 1014.9
20220928051707 65 45 2.0 17.0 0.00 1.44 0.02 50 1014.8
20220928051205 65 113 2.0 6.0 0.00 1.49 0.02 50 1014.7
20220928050705 65 135 2.0 6.0 0.00 1.49 0.02 50 1014.6
20220928050205 65 45 1.0 7.0 0.00 1.49 0.02 51 1014.7
20220928045204 64 135 1.0 10.0 0.00 1.51 0.02 50 1014.5
20220928044705 65 135 2.0 10.0 0.00 1.55 0.02 50 1014.7
20220928043205 65 158 2.0 15.0 0.00 1.57 0.02 51 1014.4
20220928042204 66 68 2.0 11.0 0.00 1.57 0.02 52 1014.7
20220928041705 66 158 3.0 11.0 0.00 1.57 0.02 52 1014.4
20220928041205 66 90 3.0 14.0 0.00 1.57 0.02 52 1014.5
20220928040705 66 135 2.0 15.0 0.00 1.57 0.02 54 1014.5